Location: Caltech
(34.1382°N, 118.1253°W)
Time: 21:53:22
(UTC-08:00)

KITSAT 1 - Visible Passes

Search period start: 17 January 2017 00:00
Search period end: 27 January 2017 00:00
Orbit: 1315 x 1315 km, 66.1° (Epoch: 17 January)

Date Brightness Start Highest point End Pass type
(mag) Time Alt. Az. Time Alt. Az. Time Alt. Az.
17 Jan 12.2 20:36:31 10° NNW 20:37:40 15° NNW 20:37:40 15° NNW visible
18 Jan 11.9 18:59:11 10° N 19:01:38 14° NNE 19:01:38 14° NNE visible
18 Jan 12.2 20:52:23 10° NNW 20:53:38 16° NNW 20:53:38 16° NNW visible
19 Jan 11.6 19:14:18 10° N 19:17:40 19° NNE 19:17:40 19° NNE visible
19 Jan 12.3 21:08:25 10° NNW 21:09:41 16° NNW 21:09:41 16° NNW visible
20 Jan 11.4 19:29:47 10° N 19:33:47 25° NNE 19:33:47 25° NNE visible
20 Jan 12.4 21:24:39 10° NW 21:25:47 15° NW 21:25:47 15° NW visible
21 Jan 11.2 19:45:29 10° NNW 19:49:59 32° N 19:49:59 32° N visible
21 Jan 12.5 21:41:11 10° NW 21:42:00 13° NW 21:42:00 13° NW visible
22 Jan 11.6 18:08:14 10° N 18:12:22 14° NE 18:14:17 13° NE visible
22 Jan 10.9 20:01:20 10° NNW 20:06:19 40° N 20:06:19 40° N visible
22 Jan 12.7 21:58:10 10° NW 21:58:21 11° WNW 21:58:21 11° WNW visible
23 Jan 11.3 18:23:18 10° N 18:29:08 21° NE 18:30:45 20° ENE visible
23 Jan 10.8 20:17:21 10° NNW 20:22:48 48° NNW 20:22:48 48° NNW visible
24 Jan 10.9 18:38:46 10° N 18:45:42 30° NE 18:47:27 28° ENE visible
24 Jan 10.9 20:33:35 10° NW 20:39:30 47° WNW 20:39:30 47° WNW visible
25 Jan 10.5 18:54:26 10° NNW 19:02:06 44° NE 19:04:24 36° E visible
25 Jan 11.3 20:50:04 10° NW 20:56:29 36° W 20:56:29 36° W visible
26 Jan 10.1 19:10:17 10° NNW 19:18:20 64° ENE 19:21:47 37° SE visible
26 Jan 11.9 21:07:00 10° NW 21:13:02 24° WSW 21:13:55 23° WSW visible
